ProjectID,Date,Electric Generation,Electric Utility Import,Facility Electric Load
,YYYY-MM-DD,kW,kW,kW
449,2016-12-01,0.0,,0.0
449,2016-12-02,0.0,,0.0
449,2016-12-03,0.0,,0.0
449,2016-12-04,0.0,,0.0
449,2016-12-05,0.0,,0.0
449,2016-12-06,0.0,,0.0
449,2016-12-07,0.0,,0.0
449,2016-12-08,0.0,,0.0
449,2016-12-09,0.0,,0.0
449,2016-12-10,0.0,,0.0
449,2016-12-11,0.0,,0.0
449,2016-12-12,0.0,,0.0
449,2016-12-13,0.0,,0.0
449,2016-12-14,0.0,,0.0
449,2016-12-15,0.0,,0.0
449,2016-12-16,0.0,,0.0
449,2016-12-17,0.0,,0.0
449,2016-12-18,0.0,,0.0
449,2016-12-19,0.0,,0.0
449,2016-12-20,0.0,,0.0
449,2016-12-21,0.0,,0.0
449,2016-12-22,0.0,,0.0
449,2016-12-23,101.08333333333333,,124.70833333333333
449,2016-12-24,34.208333333333336,,69.08333333333334
449,2016-12-25,58.208333333333336,,116.375
449,2016-12-26,59.625,,119.0
449,2016-12-27,36.75,,73.20833333333334
449,2016-12-28,45.0,,89.79166666666666
449,2016-12-29,20.125,,39.66666666666667
449,2016-12-30,35.25,,70.20833333333334
449,2016-12-31,63.458333333333336,,125.91666666666667
449,2017-01-01,125.41666666666667,,168.5
449,2017-01-02,27.625,,27.625
449,2017-01-03,19.291666666666668,,19.291666666666668
449,2017-01-04,114.08333333333333,,114.08333333333333
449,2017-01-05,36.75,,36.75
449,2017-01-06,0.0,,0.0
449,2017-01-07,0.2916666666666667,,0.2916666666666667
449,2017-01-08,0.4583333333333333,,0.4583333333333333
449,2017-01-09,0.9166666666666666,,2.0416666666666665
449,2017-01-10,0.125,,1.3333333333333333
449,2017-01-11,129.58333333333334,,248.45833333333334
449,2017-01-12,19.625,,39.83333333333333
449,2017-01-13,134.5,,257.125
449,2017-01-14,53.375,,105.91666666666666
449,2017-01-15,103.79166666666667,,208.83333333333334
449,2017-01-16,172.25,,334.79166666666663
449,2017-01-17,16.041666666666668,,32.458333333333336
449,2017-01-18,25.166666666666668,,50.25
449,2017-01-19,28.75,,57.125
449,2017-01-20,48.625,,96.04166666666666
449,2017-01-21,107.0,,206.375
449,2017-01-22,42.083333333333336,,83.79166666666667
449,2017-01-23,117.66666666666667,,229.45833333333334
449,2017-01-24,23.583333333333332,,46.291666666666664
449,2017-01-25,58.875,,116.20833333333334
449,2017-01-26,41.833333333333336,,82.875
449,2017-01-27,75.95833333333333,,150.08333333333331
449,2017-01-28,28.541666666666668,,56.083333333333336
449,2017-01-29,77.375,,149.54166666666669
449,2017-01-30,156.54166666666666,,303.5
449,2017-01-31,31.5,,57.79166666666667
449,2017-02-01,178.375,,329.125
449,2017-02-02,116.45833333333333,,229.41666666666666
449,2017-02-03,85.5,,168.29166666666669
449,2017-02-04,114.33333333333333,,226.625
449,2017-02-05,37.666666666666664,,74.125
449,2017-02-06,145.75,,277.54166666666663
449,2017-02-07,34.833333333333336,,68.70833333333334
449,2017-02-08,146.41666666666666,,272.04166666666663
449,2017-02-09,161.83333333333334,,287.33333333333337
449,2017-02-10,128.25,,253.625
449,2017-02-11,126.625,,250.58333333333331
449,2017-02-12,30.791666666666668,,60.91666666666667
449,2017-02-13,112.91666666666667,,225.0
449,2017-02-14,166.375,,302.58333333333337
449,2017-02-15,71.04166666666667,,141.04166666666669
449,2017-02-16,189.45833333333334,,359.0
449,2017-02-17,0.0,,0.0
449,2017-02-18,0.0,,0.0
449,2017-02-19,0.0,,0.0
449,2017-02-20,0.0,,0.0
449,2017-02-21,0.0,,0.0
449,2017-02-22,0.0,,0.0
449,2017-02-23,92.58333333333333,,192.29166666666666
449,2017-02-24,179.875,,230.04166666666666
449,2017-02-25,95.54166666666667,,95.54166666666667
449,2017-02-26,241.625,,241.625
449,2017-02-27,446.875,,446.875
449,2017-02-28,117.83333333333333,,222.16666666666666
449,2017-03-01,140.33333333333334,,140.33333333333334
449,2017-03-02,280.5,,280.5
449,2017-03-03,271.1666666666667,,271.1666666666667
449,2017-03-04,337.3333333333333,,337.3333333333333
449,2017-03-05,371.5833333333333,,371.5833333333333
449,2017-03-06,175.625,,218.08333333333334
449,2017-03-07,72.70833333333333,,72.70833333333333
449,2017-03-08,466.6666666666667,,466.6666666666667
449,2017-03-09,169.29166666666666,,199.33333333333331
449,2017-03-10,193.33333333333334,,383.625
449,2017-03-11,156.875,,311.58333333333337
449,2017-03-12,201.75,,231.0
449,2017-03-13,103.79166666666667,,103.79166666666667
449,2017-03-14,18.5,,18.5
449,2017-03-15,219.0,,219.0
449,2017-03-16,344.1666666666667,,454.625
449,2017-03-17,262.0,,384.5416666666667
449,2017-03-18,62.958333333333336,,125.25
449,2017-03-19,127.08333333333333,,255.08333333333331
449,2017-03-20,124.54166666666667,,250.58333333333334
449,2017-03-21,191.70833333333334,,372.625
449,2017-03-22,301.6666666666667,,598.2083333333334
449,2017-03-23,496.2083333333333,,984.375
449,2017-03-24,152.375,,307.75
449,2017-03-25,73.04166666666667,,146.04166666666669
449,2017-03-26,264.6666666666667,,526.25
449,2017-03-27,118.33333333333333,,237.95833333333331
449,2017-03-28,93.41666666666667,,186.83333333333334
449,2017-03-29,442.5416666666667,,899.3333333333334
449,2017-03-30,102.79166666666667,,203.58333333333334
449,2017-03-31,76.95833333333333,,152.41666666666666
449,2017-04-01,102.125,,202.875
449,2017-04-02,438.5,,868.4583333333333
449,2017-04-03,325.25,,644.25
449,2017-04-04,101.70833333333333,,202.16666666666666
449,2017-04-05,307.125,,610.25
449,2017-04-06,64.45833333333333,,126.75
449,2017-04-07,170.08333333333334,,334.2916666666667
449,2017-04-08,541.7916666666666,,1072.1666666666665
449,2017-04-09,478.9583333333333,,948.5833333333333
449,2017-04-10,353.5,,702.4583333333333
449,2017-04-11,122.58333333333333,,242.79166666666666
449,2017-04-12,137.29166666666666,,289.0
449,2017-04-13,371.125,,742.9583333333333
449,2017-04-14,528.0,,1052.5416666666665
449,2017-04-15,278.2083333333333,,552.625
449,2017-04-16,374.625,,749.8333333333333
449,2017-04-17,541.5416666666666,,1081.0416666666665
449,2017-04-18,542.25,,1073.75
449,2017-04-19,102.125,,203.04166666666669
449,2017-04-20,89.125,,176.58333333333331
449,2017-04-21,170.70833333333334,,338.45833333333337
449,2017-04-22,344.5,,687.3333333333333
449,2017-04-23,554.0416666666666,,1097.9166666666665
449,2017-04-24,543.375,,1071.375
449,2017-04-25,169.79166666666666,,339.125
449,2017-04-26,416.5,,833.4166666666667
449,2017-04-27,425.3333333333333,,850.2916666666666
449,2017-04-28,424.0833333333333,,839.375
449,2017-04-29,133.83333333333334,,265.1666666666667
449,2017-04-30,340.0833333333333,,674.5833333333333
449,2017-05-01,64.29166666666667,,127.41666666666667
449,2017-05-02,198.91666666666666,,394.875
449,2017-05-03,499.3333333333333,,989.7916666666666
449,2017-05-04,105.45833333333333,,207.875
449,2017-05-05,66.875,,130.04166666666666
449,2017-05-06,106.83333333333333,,208.08333333333331
449,2017-05-07,157.54166666666666,,307.79166666666663
449,2017-05-08,549.4166666666666,,1066.6666666666665
449,2017-05-09,502.4166666666667,,995.0416666666667
449,2017-05-10,503.7916666666667,,1007.5833333333334
449,2017-05-11,253.79166666666666,,508.41666666666663
449,2017-05-12,296.5833333333333,,594.9583333333333
449,2017-05-13,390.4166666666667,,781.5833333333334
449,2017-05-14,376.9166666666667,,754.7916666666667
449,2017-05-15,564.0416666666666,,1128.75
449,2017-05-16,252.75,,507.375
449,2017-05-17,490.5416666666667,,983.0833333333334
449,2017-05-18,521.3333333333334,,1044.25
449,2017-05-19,306.4166666666667,,609.7916666666667
449,2017-05-20,509.7083333333333,,1012.5833333333333
449,2017-05-21,142.375,,282.5
449,2017-05-22,370.0416666666667,,738.4583333333334
449,2017-05-23,503.5833333333333,,1001.25
449,2017-05-24,399.625,,797.2916666666667
449,2017-05-25,156.04166666666666,,311.8333333333333
449,2017-05-26,130.16666666666666,,259.7083333333333
449,2017-05-27,400.875,,800.4583333333333
449,2017-05-28,491.1666666666667,,980.25
449,2017-05-29,414.4166666666667,,827.75
449,2017-05-30,466.0416666666667,,930.4583333333334
449,2017-05-31,522.9583333333334,,1044.25
449,2017-06-01,559.7083333333334,,1116.2083333333335
449,2017-06-02,567.8333333333334,,1129.5833333333335
449,2017-06-03,565.8333333333334,,1128.4166666666667
449,2017-06-04,269.7916666666667,,539.375
449,2017-06-05,108.08333333333333,,216.04166666666666
449,2017-06-06,244.20833333333334,,489.33333333333337
449,2017-06-07,500.6666666666667,,998.1666666666667
449,2017-06-08,483.25,,963.0833333333333
449,2017-06-09,531.9166666666666,,1061.1666666666665
449,2017-06-10,516.7083333333334,,1059.4583333333335
449,2017-06-11,502.8333333333333,,1052.5416666666667
449,2017-06-12,492.7083333333333,,1031.3333333333333
449,2017-06-13,334.5,,698.875
449,2017-06-14,477.375,,998.3333333333334
449,2017-06-15,370.75,,775.3333333333333
449,2017-06-16,467.5833333333333,,979.25
449,2017-06-17,443.9583333333333,,954.0833333333333
449,2017-06-18,180.0,,396.70833333333337
449,2017-06-19,358.2916666666667,,792.9583333333334
449,2017-06-20,377.9583333333333,,840.75
449,2017-06-21,436.9166666666667,,877.625
449,2017-06-22,303.2083333333333,,668.8333333333333
449,2017-06-23,117.45833333333333,,246.5
449,2017-06-24,452.0,,946.375
449,2017-06-25,484.6666666666667,,1014.125
449,2017-06-26,486.7916666666667,,1020.5833333333333
449,2017-06-27,303.0,,634.125
449,2017-06-28,482.7083333333333,,976.5833333333333
449,2017-06-29,219.20833333333334,,458.625
449,2017-06-30,286.9583333333333,,601.4166666666666
449,2017-07-01,233.79166666666666,,489.29166666666663
449,2017-07-02,448.2916666666667,,939.4583333333334
449,2017-07-03,470.6666666666667,,1015.75
449,2017-07-04,430.25,,958.6666666666666
449,2017-07-05,416.9583333333333,,922.625
449,2017-07-06,392.6666666666667,,866.5
449,2017-07-07,299.0833333333333,,658.4583333333333
449,2017-07-08,278.5833333333333,,611.9166666666666
449,2017-07-09,443.4166666666667,,973.9583333333333
449,2017-07-10,245.16666666666666,,533.6666666666666
449,2017-07-11,462.125,,992.9583333333334
449,2017-07-12,201.58333333333334,,398.375
449,2017-07-13,231.95833333333334,,459.20833333333337
449,2017-07-14,407.75,,809.375
449,2017-07-15,364.625,,724.25
449,2017-07-16,495.2916666666667,,979.5416666666667
449,2017-07-17,526.5833333333334,,1041.8333333333335
449,2017-07-18,545.8333333333334,,1079.9583333333335
449,2017-07-19,445.2916666666667,,881.4166666666667
449,2017-07-20,165.875,,328.45833333333337
449,2017-07-21,485.8333333333333,,956.875
449,2017-07-22,123.95833333333333,,244.04166666666666
449,2017-07-23,430.9166666666667,,850.2916666666667
449,2017-07-24,335.3333333333333,,662.0416666666666
449,2017-07-25,235.58333333333334,,466.6666666666667
449,2017-07-26,404.2083333333333,,802.5416666666666
449,2017-07-27,323.7083333333333,,640.3333333333333
449,2017-07-28,381.4166666666667,,752.7916666666667
449,2017-07-29,518.5,,1021.125
449,2017-07-30,525.2083333333334,,1034.0
449,2017-07-31,472.0833333333333,,929.0
449,2017-08-01,479.1666666666667,,963.3333333333334
449,2017-08-02,421.75,,894.4583333333333
449,2017-08-03,408.375,,852.8333333333333
449,2017-08-04,201.625,,438.75
449,2017-08-05,200.79166666666666,,437.7083333333333
449,2017-08-06,383.5,,834.2083333333333
449,2017-08-07,265.0,,576.875
449,2017-08-08,423.7916666666667,,927.4583333333334
449,2017-08-09,418.7916666666667,,912.5
449,2017-08-10,388.2916666666667,,844.375
449,2017-08-11,154.95833333333334,,335.7916666666667
449,2017-08-12,361.0,,788.8333333333333
449,2017-08-13,428.1666666666667,,929.5416666666667
449,2017-08-14,417.5,,902.2083333333333
449,2017-08-15,330.7916666666667,,713.125
449,2017-08-16,393.0833333333333,,857.375
449,2017-08-17,259.5833333333333,,523.5
449,2017-08-18,470.6666666666667,,918.5416666666667
449,2017-08-19,385.7083333333333,,754.2916666666666
449,2017-08-20,484.6666666666667,,947.0
449,2017-08-21,429.2083333333333,,846.0416666666666
449,2017-08-22,194.25,,398.75
449,2017-08-23,454.4583333333333,,894.25
449,2017-08-24,439.6666666666667,,867.125
449,2017-08-25,472.8333333333333,,934.125
449,2017-08-26,438.125,,865.625
449,2017-08-27,449.7083333333333,,883.1666666666666
449,2017-08-28,382.4583333333333,,752.875
449,2017-08-29,280.875,,553.9583333333333
449,2017-08-30,436.9166666666667,,858.6666666666667
449,2017-08-31,396.4166666666667,,781.9583333333334
449,2017-09-01,401.375,,788.7916666666667
449,2017-09-02,358.4583333333333,,703.7916666666666
449,2017-09-03,254.16666666666666,,501.8333333333333
449,2017-09-04,453.625,,893.7916666666667
449,2017-09-05,350.375,,690.9166666666667
449,2017-09-06,366.9583333333333,,723.2083333333333
449,2017-09-07,274.0,,539.25
449,2017-09-08,180.20833333333334,,354.25
449,2017-09-09,371.9166666666667,,734.125
449,2017-09-10,454.25,,890.875
449,2017-09-11,245.41666666666666,,721.375
449,2017-09-12,0.0,,465.5416666666667
449,2017-09-13,10.0,,379.7083333333333
449,2017-09-14,0.0,,248.41666666666666
449,2017-09-15,9.291666666666666,,442.25
449,2017-09-16,0.0,,403.4166666666667
449,2017-09-17,0.0,,406.1666666666667
449,2017-09-18,0.0,,322.0833333333333
449,2017-09-19,0.0,,357.5833333333333
449,2017-09-20,0.0,,421.3333333333333
449,2017-09-21,0.0,,430.5
449,2017-09-22,0.0,,412.125
449,2017-09-23,0.0,,433.5416666666667
449,2017-09-24,0.0,,429.375
449,2017-09-25,0.0,,406.875
449,2017-09-26,0.0,,406.375
449,2017-09-27,101.45833333333333,,485.54166666666663
449,2017-09-28,186.41666666666666,,367.91666666666663
449,2017-09-29,190.79166666666666,,376.79166666666663
449,2017-09-30,267.9583333333333,,531.875
449,2017-10-01,478.375,,942.5416666666667
449,2017-10-02,464.125,,914.4583333333333
449,2017-10-03,462.75,,912.625
449,2017-10-04,155.375,,306.75
449,2017-10-05,446.2083333333333,,880.0833333333333
449,2017-10-06,135.95833333333334,,268.25
449,2017-10-07,279.0,,550.6666666666667
449,2017-10-08,142.45833333333334,,281.7916666666667
449,2017-10-09,103.20833333333333,,203.83333333333331
449,2017-10-10,416.5416666666667,,821.3333333333334
449,2017-10-11,51.333333333333336,,101.33333333333334
449,2017-10-12,121.04166666666667,,239.29166666666669
449,2017-10-13,229.20833333333334,,451.83333333333337
449,2017-10-14,242.375,,478.33333333333337
449,2017-10-15,147.29166666666666,,290.79166666666663
449,2017-10-16,279.4583333333333,,548.5
449,2017-10-17,391.2083333333333,,771.5
449,2017-10-18,432.9583333333333,,854.2083333333333
449,2017-10-19,406.875,,803.2916666666667
449,2017-10-20,426.8333333333333,,842.6666666666666
449,2017-10-21,310.0,,612.5833333333333
449,2017-10-22,353.7083333333333,,698.4583333333333
449,2017-10-23,103.29166666666667,,203.375
449,2017-10-24,227.29166666666666,,449.2083333333333
449,2017-10-25,57.833333333333336,,113.29166666666667
449,2017-10-26,354.625,,699.75
449,2017-10-27,273.4583333333333,,540.875
449,2017-10-28,38.958333333333336,,76.83333333333334
449,2017-10-29,32.041666666666664,,63.25
449,2017-10-30,62.958333333333336,,123.95833333333334
449,2017-10-31,18.625,,36.70833333333333
449,2017-11-01,63.875,,125.04166666666666
449,2017-11-02,85.625,,168.91666666666669
449,2017-11-03,152.125,,302.20833333333337
449,2017-11-04,197.70833333333334,,389.9166666666667
449,2017-11-05,25.666666666666668,,50.5
449,2017-11-06,128.95833333333334,,256.83333333333337
449,2017-11-07,164.66666666666666,,323.625
449,2017-11-08,312.75,,616.0
449,2017-11-09,174.5,,342.54166666666663
449,2017-11-10,259.0833333333333,,512.4166666666666
449,2017-11-11,344.875,,676.4166666666667
449,2017-11-12,68.16666666666667,,134.66666666666669
449,2017-11-13,53.75,,106.04166666666666
449,2017-11-14,56.666666666666664,,112.04166666666666
449,2017-11-15,159.29166666666666,,314.25
449,2017-11-16,39.333333333333336,,77.875
449,2017-11-17,124.95833333333333,,248.58333333333331
449,2017-11-18,18.0,,35.5
449,2017-11-19,48.625,,96.125
449,2017-11-20,73.04166666666667,,145.41666666666669
449,2017-11-21,337.1666666666667,,667.6666666666667
449,2017-11-22,68.83333333333333,,136.08333333333331
449,2017-11-23,13.541666666666666,,26.541666666666664
449,2017-11-24,332.9166666666667,,659.7916666666667
449,2017-11-25,15.916666666666666,,31.5
449,2017-11-26,47.791666666666664,,94.45833333333333
449,2017-11-27,306.9583333333333,,607.7083333333333
449,2017-11-28,316.4166666666667,,628.0
449,2017-11-29,190.95833333333334,,378.625
449,2017-11-30,51.833333333333336,,101.45833333333334
449,2017-12-01,279.5833333333333,,555.7083333333333
449,2017-12-02,97.29166666666667,,193.45833333333334
449,2017-12-03,195.5,,386.75
449,2017-12-04,99.0,,195.70833333333331
449,2017-12-05,18.541666666666668,,36.625
449,2017-12-06,37.25,,73.70833333333334
449,2017-12-07,28.041666666666668,,57.0
449,2017-12-08,188.95833333333334,,376.95833333333337
449,2017-12-09,241.91666666666666,,477.3333333333333
449,2017-12-10,31.291666666666668,,62.208333333333336
449,2017-12-11,43.458333333333336,,80.16666666666667
449,2017-12-12,12.375,,22.208333333333336
449,2017-12-13,177.5,,343.08333333333337
449,2017-12-14,16.083333333333332,,31.666666666666664
449,2017-12-15,7.166666666666667,,14.833333333333334
449,2017-12-16,8.333333333333334,,16.375
449,2017-12-17,27.75,,54.375
449,2017-12-18,24.333333333333332,,47.041666666666664
449,2017-12-19,53.916666666666664,,105.20833333333333
449,2017-12-20,52.375,,102.75
449,2017-12-21,166.16666666666666,,325.4583333333333
449,2017-12-22,1.1666666666666667,,2.375
449,2017-12-23,0.3333333333333333,,0.7083333333333333
449,2017-12-24,1.375,,2.708333333333333
449,2017-12-25,38.291666666666664,,77.41666666666666
449,2017-12-26,14.958333333333334,,30.083333333333336
449,2017-12-27,14.916666666666666,,30.125
449,2017-12-28,42.041666666666664,,83.91666666666666
449,2017-12-29,21.625,,43.125
449,2017-12-30,5.416666666666667,,10.541666666666668
449,2017-12-31,25.0,,49.08333333333333
449,2018-01-01,22.833333333333332,,45.666666666666664
449,2018-01-02,7.0,,14.041666666666668
449,2018-01-03,49.166666666666664,,98.70833333333333
449,2018-01-04,21.541666666666668,,42.958333333333336
449,2018-01-05,45.875,,96.08333333333334
449,2018-01-06,80.95833333333333,,166.5
449,2018-01-07,66.83333333333333,,137.33333333333331
449,2018-01-08,27.208333333333332,,55.25
449,2018-01-09,107.54166666666667,,212.875
449,2018-01-10,222.375,,438.75
449,2018-01-11,93.08333333333333,,175.25
449,2018-01-12,19.208333333333332,,37.95833333333333
449,2018-01-13,7.333333333333333,,14.666666666666666
449,2018-01-14,17.083333333333332,,38.125
449,2018-01-15,10.291666666666666,,22.375
449,2018-01-16,9.041666666666666,,19.916666666666664
449,2018-01-17,10.583333333333334,,22.125
449,2018-01-18,12.208333333333334,,24.166666666666668
449,2018-01-19,113.83333333333333,,200.375
449,2018-01-20,309.1666666666667,,611.2916666666667
449,2018-01-21,70.375,,139.66666666666669
449,2018-01-22,61.208333333333336,,121.25
449,2018-01-23,93.66666666666667,,186.08333333333334
449,2018-01-24,83.125,,166.29166666666669
449,2018-01-25,283.5416666666667,,559.5833333333334
449,2018-01-26,349.875,,692.5416666666667
449,2018-01-27,35.583333333333336,,70.29166666666667
449,2018-01-28,344.0833333333333,,680.5416666666666
449,2018-01-29,234.45833333333334,,460.9166666666667
449,2018-01-30,19.958333333333332,,29.5
449,2018-01-31,33.333333333333336,,55.41666666666667
449,2018-02-01,185.66666666666666,,370.4583333333333
449,2018-02-02,327.125,,649.5416666666667
449,2018-02-03,231.125,,461.29166666666663
449,2018-02-04,69.375,,138.95833333333331
449,2018-02-05,217.625,,428.875
449,2018-02-06,330.75,,658.75
449,2018-02-07,3.0,,5.916666666666666
449,2018-02-08,10.125,,20.0
449,2018-02-09,8.166666666666666,,16.291666666666664
449,2018-02-10,3.875,,8.208333333333332
449,2018-02-11,28.541666666666668,,60.70833333333333
449,2018-02-12,425.75,,862.3333333333333
449,2018-02-13,311.25,,625.0
449,2018-02-14,308.6666666666667,,622.0833333333334
449,2018-02-15,53.083333333333336,,107.20833333333334
449,2018-02-16,148.08333333333334,,299.08333333333337
449,2018-02-17,143.33333333333334,,287.375
449,2018-02-18,186.41666666666666,,376.54166666666663
449,2018-02-19,53.75,,108.04166666666666
449,2018-02-20,63.583333333333336,,128.0
449,2018-02-21,54.166666666666664,,108.625
449,2018-02-22,96.54166666666667,,194.75
449,2018-02-23,48.833333333333336,,98.16666666666667
449,2018-02-24,118.04166666666667,,237.875
449,2018-02-25,228.95833333333334,,461.1666666666667
449,2018-02-26,475.25,,953.2916666666667
449,2018-02-27,448.5833333333333,,889.4583333333333
449,2018-02-28,207.625,,415.58333333333337
449,2018-03-01,74.54166666666667,,148.66666666666669
449,2018-03-02,0.0,,124.25
449,2018-03-03,0.0,,234.625
449,2018-03-04,0.0,,495.0
449,2018-03-05,179.16666666666666,,624.9583333333334
449,2018-03-06,200.54166666666666,,399.2083333333333
449,2018-03-07,149.29166666666666,,298.75
449,2018-03-08,264.7916666666667,,528.0833333333334
449,2018-03-09,201.33333333333334,,407.1666666666667
449,2018-03-10,284.6666666666667,,568.1666666666667
449,2018-03-11,297.9583333333333,,595.2916666666666
449,2018-03-12,197.875,,396.16666666666663
449,2018-03-13,335.9583333333333,,674.1666666666666
449,2018-03-14,227.625,,454.95833333333337
449,2018-03-15,372.6666666666667,,743.0416666666667
449,2018-03-16,314.9583333333333,,626.9166666666666
449,2018-03-17,519.2083333333334,,1034.0416666666667
449,2018-03-18,514.0,,1023.7083333333333
449,2018-03-19,523.5833333333334,,1042.375
449,2018-03-20,510.25,,1015.7083333333333
449,2018-03-21,423.7083333333333,,848.3333333333333
449,2018-03-22,484.0,,970.125
449,2018-03-23,493.25,,988.5
449,2018-03-24,527.7916666666666,,1056.4583333333333
449,2018-03-25,512.375,,992.375
449,2018-03-26,519.125,,1038.9583333333335
449,2018-03-27,62.708333333333336,,126.04166666666667
449,2018-03-28,122.58333333333333,,246.41666666666666
449,2018-03-29,56.583333333333336,,113.70833333333334
449,2018-03-30,259.7916666666667,,523.4166666666667
449,2018-03-31,398.25,,797.6666666666667
449,2018-04-01,458.375,,918.9583333333333
449,2018-04-02,503.7916666666667,,1009.5416666666667
449,2018-04-03,75.29166666666667,,151.45833333333334
449,2018-04-04,250.0,,502.91666666666663
449,2018-04-05,392.4583333333333,,788.25
449,2018-04-06,143.70833333333334,,291.5416666666667
449,2018-04-07,380.5833333333333,,764.5
449,2018-04-08,276.75,,556.75
449,2018-04-09,387.9166666666667,,778.9583333333334
449,2018-04-10,383.25,,767.5416666666667
449,2018-04-11,278.375,,558.5416666666667
449,2018-04-12,148.25,,298.45833333333337
449,2018-04-13,211.95833333333334,,425.75
449,2018-04-14,148.45833333333334,,299.25
449,2018-04-15,85.5,,172.79166666666669
449,2018-04-16,56.5,,113.54166666666666
449,2018-04-17,198.125,,407.125
449,2018-04-18,251.41666666666666,,504.8333333333333
449,2018-04-19,174.625,,351.16666666666663
449,2018-04-20,494.9583333333333,,991.75
449,2018-04-21,513.7916666666666,,1030.3333333333333
449,2018-04-22,553.125,,1108.75
449,2018-04-23,496.0833333333333,,1040.2916666666667
449,2018-04-24,200.875,,444.79166666666663
449,2018-04-25,142.70833333333334,,289.375
449,2018-04-26,474.4583333333333,,951.75
449,2018-04-27,490.0416666666667,,983.7916666666667
449,2018-04-28,52.5,,105.33333333333334
449,2018-04-29,430.7083333333333,,864.1666666666666
449,2018-04-30,562.1666666666666,,1126.4166666666665
449,2018-05-01,537.5833333333334,,1077.375
449,2018-05-02,431.0416666666667,,863.625
449,2018-05-03,237.25,,475.33333333333337
449,2018-05-04,311.9583333333333,,626.0
449,2018-05-05,515.75,,1033.7083333333335
449,2018-05-06,418.9583333333333,,840.7083333333333
449,2018-05-07,533.2916666666666,,1064.7083333333333
449,2018-05-08,542.1666666666666,,1078.125
449,2018-05-09,499.375,,994.2916666666667
449,2018-05-10,269.0833333333333,,535.6666666666666
449,2018-05-11,360.875,,717.5833333333333
449,2018-05-12,259.5416666666667,,517.125
449,2018-05-13,500.5833333333333,,996.375
449,2018-05-14,421.9166666666667,,840.2916666666667
449,2018-05-15,190.625,,380.75
449,2018-05-16,524.9166666666666,,1010.0